TimeHST,TemperatureF,Dew PointF,Humidity,Sea Level PressureIn,VisibilityMPH,Wind Direction,Wind SpeedMPH,Gust SpeedMPH,PrecipitationIn,Events,Conditions,WindDirDegrees,DateUTC
12:57 AM,-9999,-9999,N/A,30.06,10.0,East,8.1,-,N/A,,Overcast,90,2013-06-19 10:57:00
1:57 AM,-9999,-9999,N/A,30.05,10.0,East,8.1,-,N/A,,Overcast,80,2013-06-19 11:57:00
2:57 AM,-9999,-9999,N/A,30.04,10.0,East,6.9,-,N/A,,Overcast,80,2013-06-19 12:57:00
3:57 AM,73.4,66.0,78,30.04,10.0,East,4.6,-,N/A,,Mostly Cloudy,80,2013-06-19 13:57:00
4:57 AM,73.4,66.0,78,30.04,10.0,East,5.8,-,N/A,,Scattered Clouds,80,2013-06-19 14:57:00
5:57 AM,73.4,66.0,78,30.05,10.0,East,5.8,-,N/A,,Scattered Clouds,90,2013-06-19 15:57:00
6:11 AM,73.4,66.2,78,30.06,6.2,East,4.6,-,0.00,Rain,Light Rain,80,2013-06-19 16:11:00
6:18 AM,73.4,66.2,78,30.06,6.2,ENE,4.6,-,0.00,,Mostly Cloudy,70,2013-06-19 16:18:00
6:57 AM,73.4,66.9,80,30.06,10.0,ENE,8.1,-,0.00,,Scattered Clouds,70,2013-06-19 16:57:00
7:19 AM,73.4,68.0,83,30.08,6.2,Variable,5.8,-,N/A,,Mostly Cloudy,0,2013-06-19 17:19:00
7:37 AM,73.4,68.0,83,30.09,6.2,ENE,9.2,-,N/A,,Scattered Clouds,70,2013-06-19 17:37:00
7:57 AM,73.4,68.0,83,30.08,10.0,ENE,10.4,-,N/A,,Scattered Clouds,60,2013-06-19 17:57:00
8:57 AM,80.2,66.9,64,30.08,10.0,ENE,8.1,-,N/A,,Scattered Clouds,60,2013-06-19 18:57:00
9:57 AM,80.6,66.9,63,30.08,10.0,NE,8.1,-,N/A,,Scattered Clouds,50,2013-06-19 19:57:00
10:57 AM,81.1,68.0,64,30.08,10.0,ENE,10.4,18.4,N/A,,Scattered Clouds,60,2013-06-19 20:57:00
11:57 AM,82.8,69.1,63,30.08,10.0,ENE,10.4,19.6,N/A,,Mostly Cloudy,70,2013-06-19 21:57:00
12:57 PM,83.1,68.0,60,30.07,10.0,ENE,11.5,16.1,N/A,,Mostly Cloudy,60,2013-06-19 22:57:00
1:57 PM,83.5,66.9,57,30.06,10.0,ENE,12.7,16.1,N/A,,Scattered Clouds,60,2013-06-19 23:57:00
2:57 PM,81.5,68.0,63,30.06,10.0,ENE,9.2,-,N/A,,Scattered Clouds,70,2013-06-20 00:57:00
3:57 PM,81.7,66.0,59,30.05,10.0,ENE,9.2,-,N/A,,Scattered Clouds,60,2013-06-20 01:57:00
4:57 PM,82.0,66.9,60,30.04,10.0,ENE,8.1,-,N/A,,Partly Cloudy,70,2013-06-20 02:57:00
5:57 PM,81.0,66.9,62,30.04,10.0,ENE,8.1,-,N/A,,Scattered Clouds,60,2013-06-20 03:57:00
6:57 PM,77.7,68.0,72,30.05,10.0,ENE,5.8,-,N/A,,Scattered Clouds,60,2013-06-20 04:57:00
7:57 PM,77.2,66.9,71,30.06,10.0,ENE,8.1,-,N/A,,Scattered Clouds,60,2013-06-20 05:57:00
8:57 PM,76.1,66.0,71,30.08,10.0,ENE,5.8,-,N/A,,Scattered Clouds,60,2013-06-20 06:57:00
9:57 PM,76.1,66.0,71,30.08,10.0,ENE,5.8,-,N/A,,Partly Cloudy,70,2013-06-20 07:57:00
10:57 PM,76.1,66.9,73,30.09,10.0,ENE,5.8,-,N/A,,Mostly Cloudy,70,2013-06-20 08:57:00
11:57 PM,75.7,66.9,74,30.07,10.0,East,6.9,-,N/A,,Scattered Clouds,80,2013-06-20 09:57:00